Content
SEND FEEDBACK

Daily
Averages
Monthly
Summary
United States of America

EVADALE, TEXAS


Home > North America > United States > Texas
Elevation: 4 feet     Latitude: 30 20N     Longitude: 094 05W

WEATHER
 
SELECT A DAY
Number of Records: 67,969;   Date Range: 3/9/11 - 7/9/14
 
SHARE

PRINT THIS DATA

[ ← Previous Day ]
WEATHER ALMANAC - MARCH 31, 2013
[ Next Day → ]
[ °C ]   °F
Weather ElementAverageHighLow
Temperature65 °F81.3 °F (2:15 pm) (12:15 pm)
Dewpoint62.4 °F69.4 °F (9:35 am) (7:00 pm)
Humidity92.6 %100 % (12:35 am)56 % (3:15 pm)
Barometer29.96 in30.01 in (12:35 am)29.88 in (8:15 pm)
Wind Speed7.3 mph21.9 mph (3:15 pm)
Wind Gust32.2 mph (3:15 pm)
Weather ElementAverage
Visibility6.6 mi
Wind DirectionSE (139.7 °)

Weather ElementTotal
Precipitation---
Heating Degree Days24.4 (Base 65)
Averaged from 62 records on March 31, 2013
WEATHER CONDITIONS BREAKOUT
WIND DIRECTION BREAKOUT
WEATHER BY HOUR - MARCH 31, 2013
[ °C ]   °F
Local TimeTemperatureDewpointHumidityBarometerVisibilityWind DirectionWind SpeedGust SpeedPrecipitationEventsConditions
12:35 AM64.9 °F64.9 °F100 %30.01 in10.0 miNorthMostly Cloudy
12:55 AM64.9 °F64.9 °F100 %30.00 in10.0 miSSE (160°)4.6 mphOvercast
1:35 AM63.9 °F63.9 °F100 %30.00 in7.0 miSSE (160°)4.6 mphMostly Cloudy
1:55 AM63.9 °F63.9 °F100 %30.00 in7.0 miCalmOvercast
2:15 AM64.4 °F64.4 °F100 %30.00 in7.0 miCalmOvercast
2:35 AM64.4 °F64.4 °F100 %30.00 in7.0 miNorthOvercast
2:55 AM64.6 °F64.6 °F100 %29.99 in7.0 miNorthOvercast
3:15 AM64.8 °F64.8 °F100 %29.98 in7.0 miNorthOvercast
3:35 AM64.6 °F64.6 °F100 %29.97 in5.0 miNorthOvercast
3:55 AM64.4 °F64.4 °F100 %29.97 in5.0 miSSE (160°)4.6 mphOvercast
4:15 AM64.4 °F64.4 °F100 %29.96 in5.0 miSSE (160°)3.5 mphOvercast
4:35 AM64.2 °F64.2 °F100 %29.96 in5.0 miNorthOvercast
5:15 AM63.5 °F63.5 °F100 %29.96 in5.0 miSouth (180°)3.5 mphClear
5:35 AM63.5 °F63.5 °F100 %29.96 in5.0 miSSE (160°)4.6 mphMostly Cloudy
5:55 AM63.0 °F63.0 °F100 %29.96 in3.0 miSE (140°)3.5 mphScattered Clouds
6:35 AM63.7 °F63.7 °F100 %29.96 in0.5 miSSE (160°)3.5 mphFogFog
6:55 AM63.9 °F63.9 °F100 %29.97 in0.5 miSouth (170°)3.5 mphFogFog
7:15 AM64.0 °F64.0 °F100 %29.97 in0.2 miSSE (160°)3.5 mphFogFog
7:35 AM64.4 °F64.4 °F100 %29.97 in0.2 miSSE (160°)3.5 mphFogFog
7:55 AM64.6 °F64.6 °F100 %29.98 in0.2 miSSE (160°)5.8 mphFogFog
8:15 AM65.3 °F65.3 °F100 %29.97 in0.8 miSSE (160°)5.8 mphOvercast
8:35 AM66.6 °F66.6 °F100 %29.98 in2.0 miSouth (170°)5.8 mphOvercast
8:55 AM66.9 °F66.9 °F100 %29.97 in3.0 miSouth (170°)4.6 mphOvercast
9:15 AM68.4 °F68.4 °F100 %29.97 in7.0 miSouth (180°)5.8 mphMostly Cloudy
9:35 AM69.8 °F69.4 °F99 %29.97 in10.0 miSouth (180°)6.9 mphOvercast
9:55 AM70.9 °F68.9 °F93 %29.96 in10.0 miSSW (200°)5.8 mphOvercast
10:15 AM72.5 °F68.7 °F88 %29.96 in10.0 miSSW (200°)9.2 mphOvercast
10:35 AM75.2 °F65.8 °F73 %29.96 in10.0 miSSW (200°)12.7 mph23.0 mphOvercast
10:55 AM75.4 °F65.8 °F72 %29.96 in10.0 miSSW (200°)12.7 mph18.4 mphOvercast
11:15 AM77.2 °F65.1 °F66 %29.96 in10.0 miSSW (210°)9.2 mph17.3 mphOvercast
11:35 AM76.3 °F63.9 °F65 %29.96 in10.0 miSW (220°)12.7 mph19.6 mphOvercast
11:55 AM76.5 °F64.0 °F65 %29.96 in10.0 miSSW (210°)11.5 mph21.9 mphOvercast
12:15 PM0.0 °F0.0 °F29.96 in10.0 miSSW (210°)9.2 mph20.7 mphOvercast
12:35 PM76.6 °F64.0 °F65 %29.97 in10.0 miSW (220°)11.5 mph18.4 mphOvercast
12:55 PM77.0 °F63.9 °F64 %29.97 in10.0 miSW (230°)9.2 mph17.3 mphOvercast
2:15 PM81.3 °F64.8 °F57 %29.94 in10.0 miSouth (190°)8.1 mphMostly Cloudy
2:35 PM79.2 °F64.8 °F61 %29.94 in10.0 miSSW (210°)6.9 mphMostly Cloudy
2:55 PM80.1 °F64.6 °F59 %29.92 in10.0 miNorthOvercast
3:15 PM73.4 °F57.0 °F56 %29.94 in10.0 miNNE (30°)21.9 mph32.2 mphThunderstormOvercast
3:35 PM66.0 °F57.2 °F73 %29.95 in10.0 miNorthOvercast
3:55 PM62.4 °F61.0 °F95 %29.97 in5.0 miNE (40°)15.0 mph24.2 mphRain-ThunderstormHeavy Thunderstorms and Rain
4:15 PM61.0 °F61.0 °F100 %29.98 in1.5 miNE (40°)13.8 mph19.6 mphRain-ThunderstormHeavy Thunderstorms and Rain
4:35 PM60.6 °F60.6 °F100 %29.94 in4.0 miEast (80°)13.8 mph21.9 mphRain-ThunderstormLight Thunderstorms and Rain
4:55 PM60.4 °F60.4 °F100 %29.94 in10.0 miESE (110°)10.4 mph19.6 mphRain-ThunderstormThunderstorms and Rain
5:15 PM60.4 °F60.4 °F100 %29.96 in7.0 miSE (140°)5.8 mphRain-ThunderstormRain
5:35 PM60.8 °F60.8 °F100 %29.97 in7.0 miSouth (180°)6.9 mphRain-ThunderstormThunderstorms and Rain
5:55 PM60.4 °F60.4 °F100 %29.94 in7.0 miSE (140°)6.9 mphRain-ThunderstormRain
6:15 PM60.8 °F60.8 °F100 %29.95 in7.0 miSSE (160°)12.7 mphRainRain
6:35 PM61.0 °F61.0 °F100 %29.90 in7.0 miSSE (160°)11.5 mph21.9 mphRainLight Rain
7:15 PM62.6 °F62.6 °F100 %29.90 in10.0 miSSE (150°)10.4 mphLight Drizzle
7:35 PM63.0 °F63.0 °F100 %29.89 in10.0 miSE (130°)8.1 mphScattered Clouds
8:15 PM63.7 °F63.1 °F98 %29.88 in10.0 miSSE (160°)10.4 mphScattered Clouds
8:35 PM63.7 °F63.5 °F99 %29.89 in10.0 miSouth (170°)6.9 mphScattered Clouds
8:55 PM63.5 °F63.5 °F100 %29.89 in10.0 miSSE (160°)4.6 mphClear
9:15 PM62.8 °F62.8 °F100 %29.90 in10.0 miSouth (190°)3.5 mphClear
9:35 PM61.7 °F61.7 °F100 %29.93 in10.0 miNW (320°)5.8 mphClear
10:15 PM60.1 °F60.1 °F100 %29.97 in10.0 miNW (320°)4.6 mphClear
10:35 PM60.4 °F60.4 °F100 %29.98 in1.2 miNNW (330°)8.1 mphMostly Cloudy
10:55 PM60.4 °F60.4 °F100 %29.99 in0.5 miNNW (340°)6.9 mphFogFog
11:15 PM60.4 °F60.4 °F100 %29.98 in0.5 miNorth (10°)5.8 mphFogFog
11:35 PM60.8 °F60.8 °F100 %29.98 in1.0 miNorth (10°)4.6 mphOvercast
11:55 PM60.8 °F60.8 °F100 %29.98 in2.0 miCalmOvercast
Hourly data recorded from KBMT, located miles away from Evadale, Texas







STORIES FROM OUR PARTNERS